loading
DOY 203 | 2024-07-21T11:34:09Z

STARLINK-31792, 60132

Orbit data source: Space-Track

STARLINK-31792, 60132 is a payload satellite owned by SpaceX/Seattle (US) in LEO that was launched on Mon, 24 Jun 2024 UTC via a Falcon 9 launch vehicle from the Air Force Western Test Range (AFWTR). Payloads include a variety of satellites, spacecraft, and rockets equipped with specific instruments for various scientific and technological missions. These include communications satellites like Starlink; space stations such as the ISS; scientific satellites like the Hubble; Earth observation satellites from companies like Planet Labs, Umbra, and HawkEye 360; GPS; miniature CubeSats for education and research; and military/defense satellites.

Loading next visibility...
Loading greatness...
STARLINK-31792 details
NORAD ID60132
COSPAR ID
2024-118V
Orbit
LEO
Last TLE update14 hours ago
Origin
Flag of USSpaceX/Seattle (US)
ManufacturerSpaceX/Seattle
BusStarlink V2M
MotorUnknown
Mass750 kg wet, ~700 kg dry
Launch date (UTC)
2024-06-24 (1 month ago)
Launch vehicle
Falcon 9
Launch site
Air Force Western Test Range (AFWTR)
Object type
Payload
Rocket body
Debris
Radar Cross SectionLarge (>1 m²)
Predictive object data (real-time)
Latitude-51.12767°
Longitude-54.83102°
Altitude381.838 km
Speed7.68 km/s
Apparent Right ascension13h 21m 12s
Apparent Declination-46° 15' 05"
Sunlit
Object is in daylight
Predictive observer data (real-time)
Local Sidereal Time00:32:35
Azimuth230.434° WSW
Elevation-79.114°
Doppler factor1
Orbital elements
Apogee358.291 km
Perigee357.311 km
Semi-major axis6,735.938 km
Eccentricity0.0000728
Inclination53.1621°
RAAN284.6671°
Arg. of periapsis60.7858°
True anomaly267.09487°
Mean anomaly267.1032°
Mean motion3.92596 °/min
BSTAR-0.015937
Period91.7 mins
Definitive object data (Epoch: 2024-07-20T22:00:00.999Z)
Latitude-25.38514°
Longitude-5.20867°
Altitude364.982 km
Speed7.69 km/s
True Right ascension17h 35m 52s
True Declination-25° 14' 40"
Sunlit
Object was in full shadow at TLE epoch
TLE from 14 hours ago
0 STARLINK-31792
1 60132U 24118V   24202.91667824 -.01750910  00000-0 -15937-1 0  9992
2 60132  53.1621 284.6671 0000728  60.7858 267.1032 15.70474305  5302
Epoch: 2024-07-20T22:00Z
No data available

STARLINK-31792 Visibility forecast

Observer location: 39.9160978°, -105.1181434

STARLINK-31792 is not visible in the next 10 days
Span
Click to sort rows by Start time (UTC) header in descending order
Start Az.
Max El. time (UTC)
Max El. Az.
Max El.
End time (UTC)
End Az.